Tracking 22287 objects as of 27-Jan-2021
HD Live streaming from Space Station
objects crossing your sky now

STARLINK-1421

Track STARLINK-1421 now!
10-day predictions
STARLINK-1421 is classified as:


NORAD ID: 45709
Int'l Code: 2020-035BE
Perigee: 554.3 km
Apogee: 554.5 km
Inclination: 53.1 °
Period: 95.6 minutes
Semi major axis: 6925 km
RCS: Unknown
Launch date: June 4, 2020
Source: United States (US)
Launch site: AIR FORCE EASTERN TEST RANGE (AFETR)
aabbcc
Your satellite tracking list
Your tracking list is empty




NASA's NSSDC Master Catalog

Two Line Element Set (TLE):
1 45709U 20035BE  21027.56937149  .00001415  00000-0  11382-3 0  9990
2 45709  53.0535 138.4111 0000152  94.7645 265.3361 15.06393047 37699
Source of the keplerian elements: AFSPC